Weather History for Spokane, WA

Change the Weather History Date:

Friday, February 15, 2013

  Actual Average Record
Temperature  
Mean Temperature 38 °F 33 °F  
Max Temperature 50 °F 39 °F 56 °F (1982)
Min Temperature 26 °F 26 °F -16 °F (1936)
Degree Days  
Heating Degree Days 27 32  
Month to date heating degree days 472 494  
Since 1 July heating degree days 4140 4427  
Cooling Degree Days 0 0  
Month to date cooling degree days 0 0  
Year to date cooling degree days 0 0  
Moisture  
Dew Point 29 °F    
Average Humidity 74    
Maximum Humidity 92    
Minimum Humidity 56    
Precipitation  
Precipitation 0.00 in 0.04 in 0.56 in (1986)
Month to date precipitation 0.04 0.70  
Year to date precipitation 1.67 2.49  
Snow  
Snow 0.00 in 0.30 in 6.80 in (1990)
Month to date snowfall 0.3 4.0  
Since 1 July snowfall 38.5 37.5  
Snow Depth 0.00 in    
Sea Level Pressure  
Sea Level Pressure 30.46 in    
Wind  
Wind Speed 2 mph (ENE)    
Max Wind Speed 7 mph    
Max Gust Speed 9 mph    
Visibility 10 miles    
Events Fog    
T = Trace of Precipitation, MM = Missing Value Source: NWS Daily Summary

Daily Weather History Graph

Daily Weather History Graph

Search for Another Location

Airport:

Trip Planner

Search our weather history database for the weather conditions in past years. The results will help you decide how hot, cold, wet, or windy it might be!

Date:

Astronomy

Feb. 15, 2013 Rise Set
Actual Time 6:55 AM PST 5:13 PM PST
Civil Twilight 6:23 AM PST 5:45 PM PST
Nautical Twilight 5:47 AM PST 6:21 PM PST
Astronomical Twilight 5:11 AM PST 6:57 PM PST
Moon 9:05 AM PST (2/15) 11:49 PM PST (2/15)
Length of Visible Light 11h 22m
Length of Day
10h 18m
Waxing Crescent, 31% of the Moon is Illuminated
Feb 15
Waxing Crescent
Feb 17
First Quarter
Feb 25
Full
Mar 4
Last Quarter
Mar 11
New

Hourly Weather History & Observations

Time (PST) Temp. Windchill Dew Point Humidity Pressure Visibility Wind Dir Wind Speed Gust Speed Precip Events Conditions
12:53 AM 27.0 °F - 24.1 °F 89% 30.56 in 10.0 mi Calm Calm - N/A   Clear
1:53 AM 27.0 °F - 25.0 °F 92% 30.55 in 10.0 mi Calm Calm - N/A   Clear
2:53 AM 26.1 °F - 24.1 °F 92% 30.56 in 10.0 mi Calm Calm - N/A   Clear
3:53 AM 28.0 °F - 26.1 °F 92% 30.56 in 10.0 mi Calm Calm - N/A   Partly Cloudy
4:53 AM 27.0 °F - 24.1 °F 89% 30.55 in 10.0 mi Calm Calm - N/A   Partly Cloudy
5:53 AM 27.0 °F 23.0 °F 25.0 °F 92% 30.56 in 7.0 mi SSE 3.5 mph - N/A   Partly Cloudy
6:53 AM 26.1 °F - 24.1 °F 92% 30.56 in 10.0 mi Calm Calm - N/A Fog Scattered Clouds
7:53 AM 28.0 °F - 25.0 °F 88% 30.57 in 8.0 mi Calm Calm - N/A Fog Mostly Cloudy
8:53 AM 30.9 °F - 28.0 °F 89% 30.55 in 8.0 mi Calm Calm - N/A Fog Mostly Cloudy
9:53 AM 36.0 °F 32.1 °F 30.9 °F 82% 30.55 in 10.0 mi NNE 4.6 mph - N/A   Mostly Cloudy
10:53 AM 39.0 °F 35.7 °F 30.9 °F 73% 30.53 in 10.0 mi ENE 4.6 mph - N/A   Mostly Cloudy
11:53 AM 43.0 °F 41.3 °F 33.1 °F 68% 30.51 in 10.0 mi ENE 3.5 mph - N/A   Mostly Cloudy
12:53 PM 46.0 °F - 33.1 °F 61% 30.48 in 10.0 mi Calm Calm - N/A   Mostly Cloudy
1:53 PM 46.9 °F - 33.1 °F 59% 30.45 in 10.0 mi South 5.8 mph - N/A   Mostly Cloudy
2:53 PM 48.9 °F - 33.1 °F 54% 30.43 in 10.0 mi Calm Calm - N/A   Mostly Cloudy
3:53 PM 48.9 °F - 34.0 °F 56% 30.41 in 10.0 mi ENE 5.8 mph - N/A   Scattered Clouds
4:53 PM 46.9 °F - 33.1 °F 59% 30.39 in 10.0 mi East 4.6 mph - N/A   Partly Cloudy
5:53 PM 42.1 °F 39.2 °F 32.0 °F 67% 30.38 in 10.0 mi NE 4.6 mph - N/A   Partly Cloudy
6:53 PM 39.9 °F - 30.9 °F 70% 30.37 in 10.0 mi Calm Calm - N/A   Clear
7:53 PM 39.0 °F 36.8 °F 30.9 °F 73% 30.35 in 10.0 mi NE 3.5 mph - N/A   Clear
8:53 PM 37.0 °F 34.5 °F 30.0 °F 76% 30.33 in 10.0 mi NE 3.5 mph - N/A   Clear
9:53 PM 36.0 °F - 28.9 °F 76% 30.30 in 10.0 mi Calm Calm - N/A   Partly Cloudy
10:53 PM 33.1 °F - 28.0 °F 82% 30.30 in 10.0 mi Calm Calm - N/A   Clear
11:53 PM 33.1 °F 28.7 °F 28.9 °F 85% 30.28 in 10.0 mi ENE 4.6 mph - N/A   Partly Cloudy